• In Switzerland
  • List of Countries
  • For 7 days
  • Water Temperature
  • Satellite Maps
  • Weather Map
  • Weather Widgets
  • user-avatar
    Login

    Hourly Weather Kerns

    Today, 24 September, Monday

    Time Temperature Precipitation Wind Pressure Humidity
    00:00 +20°C° 0.2 mm 5 mps 762 mmHg 94%
    01:00 +20°C° 0.2 mm 5 mps 762 mmHg 94%
    02:00 +20°C° 0.2 mm 5 mps 762 mmHg 94%
    03:00 +20°C° 0.2 mm 5 mps 762 mmHg 94%
    04:00 +20°C° 0 mm 6 mps 761 mmHg 94%
    05:00 +20°C° 0.1 mm 6 mps 762 mmHg 93%
    06:00 +20°C° 0.1 mm 5 mps 762 mmHg 92%
    07:00 +20°C° 0.1 mm 5 mps 762 mmHg 90%
    08:00 +23°C° 0.1 mm 6 mps 762 mmHg 77%
    09:00 +26°C° 0.1 mm 6 mps 762 mmHg 64%
    10:00 +28°C° 0.1 mm 6 mps 762 mmHg 51%
    11:00 +29°C° 0 mm 6 mps 762 mmHg 48%
    12:00 +30°C° 0 mm 7 mps 761 mmHg 44%
    13:00 +32°C° 0 mm 7 mps 761 mmHg 40%
    14:00 +30°C° 0 mm 7 mps 761 mmHg 42%
    15:00 +30°C° 0 mm 7 mps 760 mmHg 44%
    16:00 +29°C° 0 mm 6 mps 760 mmHg 46%
    17:00 +27°C° 0 mm 6 mps 760 mmHg 56%
    18:00 +24°C° 0 mm 6 mps 761 mmHg 67%
    19:00 +22°C° 0 mm 5 mps 761 mmHg 77%
    20:00 +21°C° 0 mm 5 mps 761 mmHg 82%
    21:00 +20°C° 0 mm 5 mps 762 mmHg 87%
    22:00 +20°C° 0 mm 5 mps 762 mmHg 92%
    23:00 +20°C° 0.1 mm 5 mps 762 mmHg 92%

    Tomorrow, 25 September, Tuesday

    Time Temperature Precipitation Wind Pressure Humidity
    00:00 +20°C° 0.1 mm 5 mps 762 mmHg 93%
    01:00 +20°C° 0.1 mm 5 mps 761 mmHg 93%
    02:00 +20°C° 0.1 mm 5 mps 761 mmHg 93%
    03:00 +20°C° 0.1 mm 5 mps 761 mmHg 93%
    04:00 +20°C° 0.1 mm 5 mps 760 mmHg 93%
    05:00 +20°C° 0.1 mm 5 mps 761 mmHg 92%
    06:00 +21°C° 0.1 mm 5 mps 761 mmHg 91%
    07:00 +21°C° 0.1 mm 5 mps 762 mmHg 90%
    08:00 +23°C° 0.1 mm 5 mps 762 mmHg 78%
    09:00 +26°C° 0.1 mm 6 mps 762 mmHg 67%
    10:00 +29°C° 0.1 mm 6 mps 762 mmHg 55%
    11:00 +29°C° 0 mm 6 mps 761 mmHg 52%
    12:00 +30°C° 0 mm 6 mps 761 mmHg 48%
    13:00 +32°C° 0 mm 7 mps 760 mmHg 44%
    14:00 +32°C° 0 mm 7 mps 760 mmHg 46%
    15:00 +30°C° 0 mm 7 mps 759 mmHg 47%
    16:00 +29°C° 0 mm 7 mps 759 mmHg 49%
    17:00 +27°C° 0 mm 7 mps 760 mmHg 57%
    18:00 +24°C° 0 mm 6 mps 760 mmHg 66%
    19:00 +22°C° 0 mm 6 mps 761 mmHg 74%
    20:00 +21°C° 0 mm 6 mps 761 mmHg 79%
    21:00 +21°C° 0 mm 5 mps 762 mmHg 85%
    22:00 +20°C° 0 mm 5 mps 762 mmHg 90%
    23:00 +20°C° 0.1 mm 5 mps 762 mmHg 91%

    Day after tomorrow, 26 September, Wednesday

    Time Temperature Precipitation Wind Pressure Humidity
    00:00 +20°C° 0.1 mm 5 mps 762 mmHg 93%
    01:00 +20°C° 0.1 mm 5 mps 761 mmHg 94%
    02:00 +19°C° 0.1 mm 5 mps 761 mmHg 94%
    03:00 +19°C° 0.1 mm 5 mps 761 mmHg 95%
    04:00 +19°C° 0.1 mm 5 mps 760 mmHg 95%
    05:00 +20°C° 0 mm 5 mps 761 mmHg 93%
    06:00 +20°C° 0 mm 5 mps 761 mmHg 91%
    07:00 +21°C° 0 mm 6 mps 761 mmHg 89%
    08:00 +23°C° 0 mm 6 mps 762 mmHg 73%
    09:00 +27°C° 0 mm 6 mps 762 mmHg 57%
    10:00 +29°C° 0 mm 6 mps 762 mmHg 41%
    11:00 +30°C° 0 mm 6 mps 762 mmHg 41%
    12:00 +30°C° 0 mm 6 mps 761 mmHg 40%
    13:00 +32°C° 0 mm 7 mps 760 mmHg 40%
    14:00 +30°C° 0 mm 6 mps 760 mmHg 43%
    15:00 +29°C° 0 mm 6 mps 760 mmHg 46%
    16:00 +29°C° 0 mm 6 mps 759 mmHg 49%
    17:00 +27°C° 0.1 mm 6 mps 760 mmHg 58%
    18:00 +24°C° 0.1 mm 6 mps 761 mmHg 68%
    19:00 +22°C° 0.1 mm 6 mps 761 mmHg 77%
    20:00 +21°C° 0.1 mm 6 mps 762 mmHg 81%
    21:00 +21°C° 0.1 mm 6 mps 762 mmHg 85%
    22:00 +21°C° 0.1 mm 6 mps 763 mmHg 89%
    23:00 +20°C° 0 mm 5 mps 762 mmHg 90%

    27 September, Thursday

    Time Temperature Precipitation Wind Pressure Humidity
    00:00 +20°C° 0 mm 5 mps 762 mmHg 91%
    01:00 +20°C° 0 mm 5 mps 762 mmHg 92%
    02:00 +20°C° 0.1 mm 5 mps 761 mmHg 93%
    03:00 +20°C° 0.1 mm 4 mps 761 mmHg 94%
    04:00 +19°C° 0.1 mm 4 mps 761 mmHg 95%
    05:00 +20°C° 0.1 mm 4 mps 761 mmHg 93%
    06:00 +21°C° 0.1 mm 4 mps 762 mmHg 91%
    07:00 +21°C° 0.1 mm 5 mps 762 mmHg 89%
    08:00 +23°C° 0.2 mm 5 mps 763 mmHg 80%
    09:00 +26°C° 0.2 mm 5 mps 763 mmHg 71%
    10:00 +27°C° 0.2 mm 6 mps 763 mmHg 61%
    11:00 +28°C° 0.1 mm 6 mps 763 mmHg 56%
    12:00 +29°C° 0.1 mm 6 mps 762 mmHg 51%
    13:00 +30°C° 0.1 mm 6 mps 761 mmHg 46%
    14:00 +30°C° 0 mm 6 mps 761 mmHg 48%
    15:00 +29°C° 0 mm 6 mps 761 mmHg 49%
    16:00 +29°C° 0 mm 6 mps 760 mmHg 51%
    17:00 +27°C° 0.1 mm 6 mps 761 mmHg 60%
    18:00 +24°C° 0.1 mm 6 mps 761 mmHg 69%
    19:00 +22°C° 0.1 mm 6 mps 762 mmHg 78%
    20:00 +22°C° 0.1 mm 6 mps 762 mmHg 81%
    21:00 +21°C° 0.1 mm 6 mps 763 mmHg 83%
    22:00 +21°C° 0.1 mm 6 mps 763 mmHg 86%
    23:00 +20°C° 0.1 mm 6 mps 763 mmHg 87%

    28 September, Friday

    Time Temperature Precipitation Wind Pressure Humidity
    00:00 +20°C° 0.1 mm 6 mps 762 mmHg 88%
    01:00 +20°C° 0.1 mm 6 mps 762 mmHg 89%
    02:00 +20°C° 0.1 mm 5 mps 762 mmHg 90%
    03:00 +20°C° 0.1 mm 5 mps 762 mmHg 91%
    04:00 +20°C° 0.1 mm 5 mps 761 mmHg 92%
    05:00 +20°C° 0.1 mm 5 mps 762 mmHg 89%
    06:00 +20°C° 0.1 mm 6 mps 763 mmHg 87%
    07:00 +21°C° 0.1 mm 6 mps 763 mmHg 84%
    08:00 +23°C° 0 mm 6 mps 763 mmHg 73%
    09:00 +26°C° 0 mm 6 mps 763 mmHg 62%
    10:00 +28°C° 0 mm 6 mps 763 mmHg 51%
    11:00 +29°C° 0 mm 6 mps 763 mmHg 48%
    12:00 +30°C° 0 mm 6 mps 762 mmHg 45%
    13:00 +30°C° 0 mm 6 mps 761 mmHg 42%
    14:00 +30°C° 0 mm 6 mps 761 mmHg 43%
    15:00 +29°C° 0 mm 6 mps 761 mmHg 45%
    16:00 +29°C° 0 mm 6 mps 760 mmHg 46%
    17:00 +27°C° 0 mm 6 mps 761 mmHg 57%
    18:00 +24°C° 0 mm 6 mps 761 mmHg 68%
    19:00 +22°C° 0 mm 5 mps 762 mmHg 78%
    20:00 +21°C° 0 mm 5 mps 762 mmHg 82%
    21:00 +21°C° 0 mm 5 mps 762 mmHg 86%
    22:00 +20°C° 0 mm 5 mps 763 mmHg 90%
    23:00 +20°C° 0.1 mm 5 mps 762 mmHg 90%

    29 September, Saturday

    Time Temperature Precipitation Wind Pressure Humidity
    00:00 +20°C° 0.1 mm 5 mps 762 mmHg 90%
    01:00 +21°C° 0.1 mm 5 mps 761 mmHg 90%
    02:00 +20°C° 0.1 mm 5 mps 761 mmHg 91%
    03:00 +20°C° 0.1 mm 5 mps 761 mmHg 91%
    04:00 +20°C° 0.1 mm 5 mps 761 mmHg 91%
    05:00 +20°C° 0.1 mm 5 mps 761 mmHg 90%
    06:00 +21°C° 0.1 mm 5 mps 762 mmHg 88%
    07:00 +21°C° 0.1 mm 5 mps 762 mmHg 86%
    08:00 +23°C° 0 mm 6 mps 763 mmHg 77%
    09:00 +26°C° 0 mm 6 mps 763 mmHg 67%
    10:00 +28°C° 0 mm 6 mps 763 mmHg 57%
    11:00 +29°C° 0 mm 6 mps 762 mmHg 53%
    12:00 +30°C° 0 mm 6 mps 761 mmHg 48%
    13:00 +32°C° 0 mm 6 mps 761 mmHg 44%
    14:00 +30°C° 0 mm 6 mps 760 mmHg 45%
    15:00 +30°C° 0 mm 6 mps 760 mmHg 45%
    16:00 +30°C° 0 mm 6 mps 760 mmHg 46%
    17:00 +28°C° 0 mm 6 mps 760 mmHg 57%
    18:00 +25°C° 0 mm 5 mps 761 mmHg 68%
    19:00 +22°C° 0 mm 5 mps 761 mmHg 79%
    20:00 +21°C° 0 mm 5 mps 761 mmHg 84%
    21:00 +21°C° 0 mm 5 mps 761 mmHg 89%
    22:00 +20°C° 0 mm 5 mps 762 mmHg 93%
    23:00 +20°C° 0 mm 5 mps 761 mmHg 94%
    Show more